Home   Weather   Adak   Past weeks

Flag for USA Past Weather in Adak, Alaska, USA — Yesterday and Last 2 Weeks

Now
50 °F

Overcast.


Feels Like: 47 °F
Forecast: 45 / 51 °F
Wind: 7 mph from East

Location: Adak

Current Time: Jul 22, 2017 at 3:54:50 pm

Latest Report: Jul 22, 2017 at 3:16 pm


Visibility: 10 mi

Pressure: 30.25 "Hg

Humidity: 67%

Dew Point: 39 °F

Location of AdakLocation

Past Weather in Adak — Graph

°F

Adak Temperature Yesterday

Maximum temperature yesterday: 48 °F (at 12:16 am)
Minimum temperature yesterday: 46 °F (at 6:56 am)
Average temperature yesterday: 47 °F

High & Low Weather Summary for the Past Weeks

 TemperatureHumidityPressure
High61 °F (Jul 15, 1:36 pm)82% (Jul 15, 5:16 am)30.26 "Hg (Jul 15, 5:16 am)
Low45 °F (Jul 8, 4:36 am)55% (Jul 10, 3:56 pm)29.34 "Hg (Jul 8, 2:36 am)
Average50 °F70%29.95 "Hg
* Reported Jul 7 2:16 pm — Jul 22 2:36 pm, Adak. Weather by CustomWeather, © 2017

Note: Actual official high and low records may vary slightly from our data, if they occured in-between our weather recording intervals... More about our weather records

Advertising

Adak Weather History for the Previous 24 Hours

Scroll right to see more
 ConditionsComfort  
Time TempWeatherWind HumidityBarometerVisibility
2:36 pm
Sat, Jul 22
48 °FOvercast.7 mph71%30.25 "Hg10 mi
1:56 pm48 °FLow clouds.6 mph71%30.25 "Hg10 mi
1:36 pm48 °FOvercast.6 mph71%30.25 "Hg10 mi
1:16 pm48 °FOvercast.6 mph71%30.25 "Hg10 mi
12:56 pm48 °FLow clouds.6 mph71%30.26 "Hg10 mi
12:36 pm46 °FLow clouds.6 mph71%30.26 "Hg10 mi
12:16 pm46 °FLow clouds.5 mph71%30.26 "Hg10 mi
11:56 am46 °FLow clouds.5 mph71%30.26 "Hg10 mi
11:36 am46 °FLow clouds.5 mph76%30.26 "Hg10 mi
11:16 am46 °FLow clouds.6 mph71%30.25 "Hg10 mi
10:56 am46 °FLow clouds.5 mph71%30.25 "Hg10 mi
10:36 am46 °FLow clouds.5 mph71%30.25 "Hg10 mi
9:56 am46 °FLow clouds.6 mph71%30.25 "Hg10 mi
9:36 am46 °FLow clouds.5 mph71%30.25 "Hg10 mi
8:56 am45 °FLow clouds.No wind76%30.24 "Hg2 mi
8:36 am46 °FLow clouds.3 mph71%30.24 "Hg2 mi
7:56 am45 °FLow clouds.3 mph76%30.23 "Hg1 mi
7:36 am45 °FMostly cloudy.3 mph76%30.23 "Hg7 mi
7:16 am45 °FLow clouds.No wind76%30.23 "Hg3 mi
6:56 am45 °FLow clouds.6 mph76%30.22 "Hg10 mi
6:36 am45 °FLow clouds.No wind76%30.22 "Hg5 mi
6:16 am45 °FLow clouds.5 mph76%30.22 "Hg3 mi
5:56 am45 °FLow clouds.No wind76%30.22 "Hg3 mi
5:36 am45 °FLow clouds.3 mph76%30.22 "Hg2 mi
5:16 am45 °FLow clouds.No wind76%30.22 "Hg2 mi
4:36 am45 °FMostly cloudy.No wind76%30.21 "Hg3 mi
3:56 am45 °FMostly cloudy.No wind76%30.21 "Hg7 mi
3:36 am45 °FMostly cloudy.3 mph76%30.22 "Hg7 mi
3:16 am45 °FLow clouds.3 mph76%30.22 "Hg2 mi
2:56 am46 °FLow clouds.No wind71%30.23 "Hg2 mi
2:36 am46 °FLow clouds.No wind71%30.23 "Hg2 mi
2:16 am46 °FLow clouds.No wind71%30.22 "Hg2 mi
1:56 am46 °FLow clouds.No wind71%30.22 "Hg2 mi
1:36 am46 °FLow clouds.No wind71%30.22 "Hg2 mi
1:16 am46 °FLow clouds.3 mph71%30.22 "Hg2 mi
12:56 am46 °FLow clouds.3 mph71%30.22 "Hg3 mi
12:36 am46 °FLow clouds.No wind71%30.22 "Hg2 mi
12:16 am46 °FLow clouds.3 mph71%30.22 "Hg2 mi
11:56 pm
Fri, Jul 21
46 °FLow clouds.No wind71%30.22 "Hg2 mi
11:36 pm46 °FLow clouds.No wind71%30.22 "Hg1 mi
11:16 pm46 °FLow clouds.3 mph71%30.22 "Hg1 mi
10:56 pm46 °FLow clouds.6 mph71%30.22 "Hg1 mi
10:36 pm46 °FLow clouds.6 mph76%30.21 "Hg1 mi
9:56 pm46 °FLow clouds.5 mph71%30.21 "Hg2 mi
9:36 pm46 °FLow clouds.5 mph71%30.21 "Hg3 mi
8:56 pm46 °FLow clouds.3 mph71%30.20 "Hg8 mi
8:36 pm46 °FLow clouds.5 mph71%30.20 "Hg10 mi
7:36 pm48 °FLow clouds.6 mph71%30.20 "Hg10 mi
7:16 pm48 °FLow clouds.8 mph71%30.20 "Hg10 mi
6:36 pm48 °FLow clouds.6 mph71%30.19 "Hg10 mi
5:56 pm48 °FLow clouds.7 mph71%30.19 "Hg10 mi
5:36 pm48 °FOvercast.8 mph71%30.20 "Hg10 mi
4:56 pm48 °FLow clouds.7 mph71%30.20 "Hg10 mi
4:36 pm48 °FOvercast.7 mph66%30.21 "Hg10 mi
3:56 pm48 °FOvercast.7 mph71%30.21 "Hg10 mi
3:36 pm48 °FOvercast.7 mph71%30.21 "Hg10 mi
Weather by CustomWeather, © 2017

See weather overviewHow to use our weather pages